,,,PA_Meas_PMT16A,,PR_Meas_QMR101_102,,RH_Meas_QMH101,,SR_Meas_QMS101,,TA_Meas_QMH101,,GenWind,,GenWind,
date,time,status,PA,status,PR,status,RH,status,SR,status,TA,status,DirAvg,status,SpdAvg,
2010-08-25, 00:00:04,VALID,1001.91,VALID,0,VALID,87.1226,VALID,0,VALID,24.8546,VALID,210,VALID,1.02266,
2010-08-25, 00:01:04,VALID,1001.91,VALID,0,VALID,87.1074,VALID,0,VALID,24.7941,VALID,192,VALID,1.2043,
2010-08-25, 00:02:04,VALID,1001.93,VALID,0,VALID,87.3668,VALID,0,VALID,24.7746,VALID,204,VALID,0.929297,
2010-08-25, 00:03:04,VALID,1001.95,VALID,0,VALID,87.382,VALID,0,VALID,24.7551,VALID,182,VALID,1.67539,
2010-08-25, 00:04:04,VALID,1001.93,VALID,0,VALID,87.6186,VALID,0,VALID,24.7356,VALID,173,VALID,1.57891,
2010-08-25, 00:05:04,VALID,1001.96,VALID,0,VALID,88.0916,VALID,0,VALID,24.7356,VALID,168,VALID,1.49531,
2010-08-25, 00:06:04,VALID,1001.94,VALID,0,VALID,88.29,VALID,0,VALID,24.7142,VALID,183,VALID,1.37383,
2010-08-25, 00:07:04,VALID,1001.94,VALID,0,VALID,87.8856,VALID,0,VALID,24.6751,VALID,184,VALID,1.7125,
2010-08-25, 00:08:04,VALID,1001.94,VALID,0,VALID,88.0229,VALID,0,VALID,24.6361,VALID,183,VALID,1.64258,
2010-08-25, 00:09:04,VALID,1001.92,VALID,0,VALID,88.7325,VALID,0,VALID,24.6361,VALID,175,VALID,1.50391,
2010-08-25, 00:10:04,VALID,1001.92,VALID,0,VALID,89.2132,VALID,0,VALID,24.6166,VALID,157,VALID,1.09727,
2010-08-25, 00:11:04,VALID,1001.93,VALID,0,VALID,89.0071,VALID,0.112286,VALID,24.5971,VALID,155,VALID,1.3957,
2010-08-25, 00:12:04,VALID,1001.91,VALID,0,VALID,88.6791,VALID,0.112286,VALID,24.5971,VALID,146,VALID,1.26133,
2010-08-25, 00:13:04,VALID,1001.93,VALID,0,VALID,89.0148,VALID,0,VALID,24.6166,VALID,145,VALID,1.06953,
2010-08-25, 00:14:04,VALID,1001.92,VALID,0,VALID,88.496,VALID,0,VALID,24.6166,VALID,145,VALID,0.945703,
2010-08-25, 00:15:04,VALID,1001.93,VALID,0,VALID,89.175,VALID,0,VALID,24.6556,VALID,124,VALID,1.13359,
2010-08-25, 00:16:04,VALID,1001.93,VALID,0,VALID,89.3581,VALID,0,VALID,24.6361,VALID,121,VALID,1.06641,
2010-08-25, 00:17:04,VALID,1001.97,VALID,0,VALID,89.4954,VALID,0,VALID,24.6361,VALID,114,VALID,1.11211,
2010-08-25, 00:18:04,VALID,1001.95,VALID,0,VALID,89.4573,VALID,0,VALID,24.6166,VALID,108,VALID,0.864453,
2010-08-25, 00:19:04,VALID,1001.95,VALID,0,VALID,89.6709,VALID,0,VALID,24.6166,VALID,105,VALID,0.842969,
2010-08-25, 00:20:04,VALID,1001.95,VALID,0,VALID,89.8846,VALID,0,VALID,24.6166,VALID,97,VALID,0.720312,
2010-08-25, 00:21:04,VALID,1001.93,VALID,0,VALID,90.1211,VALID,0,VALID,24.6166,VALID,78,VALID,0.714063,
2010-08-25, 00:22:04,VALID,1001.95,VALID,0,VALID,89.9761,VALID,0,VALID,24.5971,VALID,77,VALID,0.807422,
2010-08-25, 00:23:04,VALID,1001.99,VALID,0,VALID,89.8083,VALID,0,VALID,24.5385,VALID,77,VALID,0.861719,
2010-08-25, 00:24:04,VALID,1001.98,VALID,0,VALID,89.8006,VALID,0,VALID,24.5385,VALID,77,VALID,0.701172,
2010-08-25, 00:25:04,VALID,1001.98,VALID,0,VALID,89.8464,VALID,0,VALID,24.519,VALID,80,VALID,0.429297,
2010-08-25, 00:26:04,VALID,1001.99,VALID,0,VALID,89.9609,VALID,0,VALID,24.4995,VALID,80,VALID,0.437109,
2010-08-25, 00:27:04,VALID,1001.97,VALID,0,VALID,89.9761,VALID,0,VALID,24.48,VALID,80,VALID,0,
2010-08-25, 00:28:04,VALID,1002.01,VALID,0,VALID,89.8159,VALID,0,VALID,24.4604,VALID,81,VALID,0.459766,
2010-08-25, 00:29:04,VALID,1002.01,VALID,0,VALID,89.7701,VALID,0,VALID,24.4409,VALID,81,VALID,0.371094,
2010-08-25, 00:30:04,VALID,1002,VALID,0,VALID,89.4497,VALID,0,VALID,24.4019,VALID,84,VALID,0.709375,
2010-08-25, 00:31:04,VALID,1001.98,VALID,0,VALID,89.526,VALID,0,VALID,24.4019,VALID,86,VALID,0.0980469,
2010-08-25, 00:32:04,VALID,1001.97,VALID,0,VALID,89.6404,VALID,0,VALID,24.4019,VALID,86,VALID,0,
2010-08-25, 00:33:04,VALID,1001.96,VALID,0,VALID,89.7396,VALID,0,VALID,24.3824,VALID,86,VALID,0,
2010-08-25, 00:34:04,VALID,1001.93,VALID,0,VALID,89.8388,VALID,0,VALID,24.3824,VALID,86,VALID,0,
2010-08-25, 00:35:04,VALID,1001.9,VALID,0,VALID,89.7396,VALID,0,VALID,24.3629,VALID,109,VALID,0,
2010-08-25, 00:36:04,VALID,1001.91,VALID,0,VALID,89.7854,VALID,0,VALID,24.3842,VALID,109,VALID,0,
2010-08-25, 00:37:04,VALID,1001.89,VALID,0,VALID,89.8083,VALID,0,VALID,24.3842,VALID,109,VALID,0,
2010-08-25, 00:38:04,VALID,1001.85,VALID,0,VALID,89.8235,VALID,0,VALID,24.3842,VALID,127,VALID,0,
2010-08-25, 00:39:04,VALID,1001.81,VALID,0,VALID,89.6786,VALID,0,VALID,24.4037,VALID,185,VALID,0.464453,
2010-08-25, 00:40:04,VALID,1001.76,VALID,0,VALID,89.5794,VALID,0,VALID,24.4233,VALID,185,VALID,0.378906,
2010-08-25, 00:41:04,VALID,1001.77,VALID,0,VALID,89.2818,VALID,0,VALID,24.4251,VALID,185,VALID,0.0324219,
2010-08-25, 00:42:04,VALID,1001.75,VALID,0,VALID,89.7701,VALID,0,VALID,24.4428,VALID,247,VALID,0.815625,
2010-08-25, 00:43:04,VALID,1001.74,VALID,0,VALID,89.4649,VALID,0,VALID,24.4037,VALID,254,VALID,0.789453,
2010-08-25, 00:44:04,VALID,1001.73,VALID,0,VALID,89.5717,VALID,0,VALID,24.4037,VALID,216,VALID,0.405078,
2010-08-25, 00:45:04,VALID,1001.74,VALID,0,VALID,89.1979,VALID,0,VALID,24.3647,VALID,216,VALID,0.344531,
2010-08-25, 00:46:04,VALID,1001.74,VALID,0,VALID,89.1216,VALID,0,VALID,24.3452,VALID,216,VALID,0,
2010-08-25, 00:47:04,VALID,1001.74,VALID,0,VALID,89.5489,VALID,0,VALID,24.3452,VALID,216,VALID,0.176563,
2010-08-25, 00:48:04,VALID,1001.74,VALID,0,VALID,89.8235,VALID,0,VALID,24.3257,VALID,216,VALID,0,
2010-08-25, 00:49:04,VALID,1001.74,VALID,0,VALID,89.8006,VALID,0,VALID,24.3062,VALID,216,VALID,0.301562,
2010-08-25, 00:50:04,VALID,1001.74,VALID,0,VALID,89.8998,VALID,0,VALID,24.2653,VALID,222,VALID,0.517187,
2010-08-25, 00:51:04,VALID,1001.73,VALID,0,VALID,89.9761,VALID,0,VALID,24.2476,VALID,281,VALID,0.730078,
2010-08-25, 00:52:04,VALID,1001.73,VALID,0,VALID,89.9074,VALID,0,VALID,24.2281,VALID,285,VALID,0.792969,
2010-08-25, 00:53:04,VALID,1001.7,VALID,0,VALID,90.0753,VALID,0,VALID,24.2086,VALID,302,VALID,0.676172,
2010-08-25, 00:54:04,VALID,1001.72,VALID,0,VALID,90.0829,VALID,0,VALID,24.1891,VALID,328,VALID,0.594141,
2010-08-25, 00:55:04,VALID,1001.7,VALID,0,VALID,90.3881,VALID,0,VALID,24.1696,VALID,329,VALID,0.709766,
2010-08-25, 00:56:04,VALID,1001.72,VALID,0,VALID,90.5407,VALID,0,VALID,24.1287,VALID,341,VALID,1.06641,
2010-08-25, 00:57:04,VALID,1001.75,VALID,0,VALID,90.8688,VALID,0,VALID,24.15,VALID,355,VALID,1.21992,
2010-08-25, 00:58:04,VALID,1001.82,VALID,0,VALID,91.0671,VALID,0,VALID,24.1305,VALID,4,VALID,1.49961,
2010-08-25, 00:59:04,VALID,1001.85,VALID,0,VALID,91.2731,VALID,0,VALID,24.111,VALID,15,VALID,1.79062,
2010-08-25, 01:00:04,VALID,1001.88,VALID,0,VALID,91.5326,VALID,0,VALID,24.111,VALID,25,VALID,1.6293,
2010-08-25, 01:01:04,VALID,1001.89,VALID,0,VALID,91.2579,VALID,0,VALID,24.0525,VALID,22,VALID,2.10742,
2010-08-25, 01:02:04,VALID,1001.88,VALID,0,VALID,90.4263,VALID,0,VALID,24.0525,VALID,19,VALID,2.01484,
2010-08-25, 01:03:04,VALID,1001.89,VALID,0,VALID,90.1745,VALID,0,VALID,24.0525,VALID,23,VALID,1.27852,
2010-08-25, 01:04:04,VALID,1001.84,VALID,0,VALID,89.6786,VALID,0,VALID,24.0311,VALID,22,VALID,0.980078,
2010-08-25, 01:05:04,VALID,1001.83,VALID,0,VALID,89.6786,VALID,0,VALID,24.072,VALID,15,VALID,0.816406,
2010-08-25, 01:06:04,VALID,1001.8,VALID,0,VALID,89.4039,VALID,0,VALID,24.072,VALID,9,VALID,0.525391,
2010-08-25, 01:07:04,VALID,1001.79,VALID,0,VALID,89.3123,VALID,0,VALID,24.0311,VALID,8,VALID,0.0921875,
2010-08-25, 01:08:04,VALID,1001.77,VALID,0,VALID,89.236,VALID,0,VALID,24.0525,VALID,8,VALID,0.0078125,
2010-08-25, 01:09:04,VALID,1001.78,VALID,0,VALID,89.2437,VALID,0,VALID,24.0311,VALID,8,VALID,0.110937,
2010-08-25, 01:10:04,VALID,1001.82,VALID,0,VALID,89.4497,VALID,0,VALID,24.0329,VALID,8,VALID,0.979297,
2010-08-25, 01:11:04,VALID,1001.8,VALID,0,VALID,89.4344,VALID,0,VALID,24.0311,VALID,8,VALID,0.946875,
2010-08-25, 01:12:04,VALID,1001.81,VALID,0,VALID,89.5565,VALID,0,VALID,24.0525,VALID,355,VALID,1.31523,
2010-08-25, 01:13:04,VALID,1001.75,VALID,0,VALID,89.4954,VALID,0,VALID,24.0525,VALID,346,VALID,0.982422,
2010-08-25, 01:14:04,VALID,1001.72,VALID,0,VALID,89.6023,VALID,0,VALID,24.0525,VALID,326,VALID,0.560156,
2010-08-25, 01:15:04,VALID,1001.7,VALID,0,VALID,89.0987,VALID,0,VALID,24.0329,VALID,319,VALID,0.568359,
2010-08-25, 01:16:04,VALID,1001.68,VALID,0,VALID,89.2666,VALID,0,VALID,24.072,VALID,318,VALID,0.344141,
2010-08-25, 01:17:04,VALID,1001.64,VALID,0,VALID,89.2894,VALID,0,VALID,24.0506,VALID,318,VALID,0.314844,
2010-08-25, 01:18:04,VALID,1001.65,VALID,0,VALID,89.236,VALID,0,VALID,24.072,VALID,318,VALID,0.0703125,
2010-08-25, 01:19:04,VALID,1001.61,VALID,0,VALID,89.2437,VALID,0,VALID,24.072,VALID,318,VALID,0.484766,
2010-08-25, 01:20:04,VALID,1001.6,VALID,0,VALID,89.0758,VALID,0,VALID,24.072,VALID,259,VALID,0.617188,
2010-08-25, 01:21:04,VALID,1001.57,VALID,0,VALID,89.1521,VALID,0,VALID,24.0897,VALID,253,VALID,0.637891,
2010-08-25, 01:22:04,VALID,1001.53,VALID,0,VALID,89.5183,VALID,0,VALID,24.1092,VALID,247,VALID,0.757031,
2010-08-25, 01:23:04,VALID,1001.52,VALID,0,VALID,89.381,VALID,0,VALID,24.1305,VALID,244,VALID,1.13789,
2010-08-25, 01:24:04,VALID,1001.49,VALID,0,VALID,89.2513,VALID,0,VALID,24.15,VALID,237,VALID,1.15313,
2010-08-25, 01:25:04,VALID,1001.47,VALID,0,VALID,89.793,VALID,0,VALID,24.1482,VALID,227,VALID,1.12734,
2010-08-25, 01:26:04,VALID,1001.49,VALID,0,VALID,89.9685,VALID,0,VALID,24.1696,VALID,226,VALID,1.03945,
2010-08-25, 01:27:04,VALID,1001.48,VALID,0,VALID,89.6328,VALID,0,VALID,24.15,VALID,233,VALID,1.15391,
2010-08-25, 01:28:04,VALID,1001.47,VALID,0,VALID,89.7549,VALID,0,VALID,24.1677,VALID,237,VALID,1.01445,
2010-08-25, 01:29:04,VALID,1001.45,VALID,0,VALID,89.6023,VALID,0,VALID,24.1891,VALID,236,VALID,1.16211,
2010-08-25, 01:30:04,VALID,1001.45,VALID,0,VALID,89.7396,VALID,0,VALID,24.2086,VALID,237,VALID,0.935156,
2010-08-25, 01:31:04,VALID,1001.48,VALID,0,VALID,89.5717,VALID,0,VALID,24.1872,VALID,246,VALID,1.14883,
2010-08-25, 01:32:04,VALID,1001.49,VALID,0,VALID,89.5946,VALID,0,VALID,24.2086,VALID,258,VALID,0.810938,
2010-08-25, 01:33:04,VALID,1001.48,VALID,0,VALID,89.8083,VALID,0,VALID,24.2086,VALID,279,VALID,0.564453,
2010-08-25, 01:34:04,VALID,1001.52,VALID,0,VALID,89.9914,VALID,0,VALID,24.1891,VALID,300,VALID,0.660156,
2010-08-25, 01:35:04,VALID,1001.51,VALID,0,VALID,90.1592,VALID,0,VALID,24.15,VALID,333,VALID,0.645312,
2010-08-25, 01:36:04,VALID,1001.55,VALID,0,VALID,90.3652,VALID,0,VALID,24.1305,VALID,338,VALID,0.641016,
2010-08-25, 01:37:04,VALID,1001.53,VALID,0,VALID,90.6017,VALID,0,VALID,24.0915,VALID,340,VALID,0.214062,
2010-08-25, 01:38:04,VALID,1001.5,VALID,0,VALID,90.7467,VALID,0,VALID,24.072,VALID,340,VALID,0.00664063,
2010-08-25, 01:39:04,VALID,1001.53,VALID,0,VALID,90.7925,VALID,0,VALID,24.0525,VALID,208,VALID,0.992578,
2010-08-25, 01:40:04,VALID,1001.52,VALID,0,VALID,90.7391,VALID,0,VALID,23.9939,VALID,207,VALID,1.06523,
2010-08-25, 01:41:04,VALID,1001.53,VALID,0,VALID,90.6628,VALID,0,VALID,23.9939,VALID,207,VALID,0.915625,
2010-08-25, 01:42:04,VALID,1001.53,VALID,0,VALID,90.6857,VALID,0,VALID,23.9744,VALID,208,VALID,0.782031,
2010-08-25, 01:43:04,VALID,1001.54,VALID,0,VALID,90.823,VALID,0,VALID,23.9744,VALID,208,VALID,0.193359,
2010-08-25, 01:44:04,VALID,1001.54,VALID,0,VALID,90.8611,VALID,0,VALID,23.9549,VALID,197,VALID,0.427734,
2010-08-25, 01:45:04,VALID,1001.54,VALID,0,VALID,90.8688,VALID,0,VALID,23.914,VALID,197,VALID,0.300781,
2010-08-25, 01:46:04,VALID,1001.51,VALID,0,VALID,90.884,VALID,0,VALID,23.9549,VALID,197,VALID,0.48125,
2010-08-25, 01:47:04,VALID,1001.51,VALID,0,VALID,90.7849,VALID,0,VALID,23.9354,VALID,197,VALID,0,
2010-08-25, 01:48:04,VALID,1001.49,VALID,0,VALID,90.678,VALID,0,VALID,23.9354,VALID,197,VALID,0,
2010-08-25, 01:49:04,VALID,1001.5,VALID,0,VALID,90.6628,VALID,0,VALID,23.9159,VALID,275,VALID,0,
2010-08-25, 01:50:04,VALID,1001.46,VALID,0,VALID,90.5712,VALID,0,VALID,23.8945,VALID,280,VALID,0,
2010-08-25, 01:51:04,VALID,1001.44,VALID,0,VALID,90.4797,VALID,0,VALID,23.8963,VALID,280,VALID,0,
2010-08-25, 01:52:04,VALID,1001.46,VALID,0,VALID,90.5026,VALID,0,VALID,23.8963,VALID,280,VALID,0,
2010-08-25, 01:53:04,VALID,1001.44,VALID,0,VALID,90.6246,VALID,0,VALID,23.8963,VALID,280,VALID,0,
2010-08-25, 01:54:04,VALID,1001.38,VALID,0,VALID,90.8154,VALID,0,VALID,23.8963,VALID,280,VALID,0,
2010-08-25, 01:55:04,VALID,1001.38,VALID,0,VALID,90.9146,VALID,0,VALID,23.8768,VALID,280,VALID,0,
2010-08-25, 01:56:04,VALID,1001.38,VALID,0,VALID,91.0443,VALID,0,VALID,23.8768,VALID,280,VALID,0,
2010-08-25, 01:57:04,VALID,1001.35,VALID,0,VALID,91.1206,VALID,0,VALID,23.8555,VALID,280,VALID,0,
2010-08-25, 01:58:04,VALID,1001.34,VALID,0,VALID,91.2579,VALID,0,VALID,23.8573,VALID,280,VALID,0,
2010-08-25, 01:59:04,VALID,1001.34,VALID,0,VALID,91.38,VALID,0,VALID,23.8573,VALID,280,VALID,0,
2010-08-25, 02:00:04,VALID,1001.31,VALID,0,VALID,91.3952,VALID,0,VALID,23.8378,VALID,313,VALID,0.0222656,
2010-08-25, 02:01:04,VALID,1001.32,VALID,0,VALID,91.4028,VALID,0,VALID,23.8378,VALID,339,VALID,0.835938,
2010-08-25, 02:02:04,VALID,1001.31,VALID,0,VALID,91.4486,VALID,0,VALID,23.8183,VALID,344,VALID,0.739062,
2010-08-25, 02:03:04,VALID,1001.3,VALID,0,VALID,91.4257,VALID,0,VALID,23.7775,VALID,344,VALID,0.564844,
2010-08-25, 02:04:04,VALID,1001.29,VALID,0,VALID,91.4105,VALID,0,VALID,23.7793,VALID,344,VALID,0.328516,
2010-08-25, 02:05:04,VALID,1001.27,VALID,0,VALID,91.441,VALID,0,VALID,23.7579,VALID,344,VALID,0.217969,
2010-08-25, 02:06:04,VALID,1001.28,VALID,0,VALID,91.4486,VALID,0,VALID,23.7597,VALID,344,VALID,0,
2010-08-25, 02:07:04,VALID,1001.25,VALID,0,VALID,91.4105,VALID,0,VALID,23.7597,VALID,344,VALID,0.251953,
2010-08-25, 02:08:04,VALID,1001.23,VALID,0,VALID,91.3876,VALID,0,VALID,23.7402,VALID,344,VALID,0.00234375,
2010-08-25, 02:09:04,VALID,1001.22,VALID,0,VALID,91.2579,VALID,0,VALID,23.7207,VALID,344,VALID,0.268359,
2010-08-25, 02:10:04,VALID,1001.22,VALID,0,VALID,91.2274,VALID,0,VALID,23.7207,VALID,344,VALID,0.317578,
2010-08-25, 02:11:04,VALID,1001.22,VALID,0,VALID,91.2426,VALID,0,VALID,23.7207,VALID,344,VALID,0.221484,
2010-08-25, 02:12:04,VALID,1001.22,VALID,0,VALID,91.2426,VALID,0,VALID,23.7207,VALID,344,VALID,0.282031,
2010-08-25, 02:13:04,VALID,1001.22,VALID,0,VALID,91.3342,VALID,0,VALID,23.7207,VALID,344,VALID,0.463672,
2010-08-25, 02:14:04,VALID,1001.21,VALID,0,VALID,91.3952,VALID,0,VALID,23.7207,VALID,138,VALID,0.762109,
2010-08-25, 02:15:04,VALID,1001.16,VALID,0,VALID,91.4105,VALID,0,VALID,23.742,VALID,138,VALID,0.900781,
2010-08-25, 02:16:04,VALID,1001.13,VALID,0,VALID,91.3494,VALID,0,VALID,23.7402,VALID,138,VALID,0.775391,
2010-08-25, 02:17:04,VALID,1001.05,VALID,0,VALID,91.3342,VALID,0,VALID,23.7207,VALID,138,VALID,0.549219,
2010-08-25, 02:18:04,VALID,1001.03,VALID,0,VALID,91.2731,VALID,0,VALID,23.7402,VALID,164,VALID,0.680859,
2010-08-25, 02:19:04,VALID,1001.02,VALID,0,VALID,91.2274,VALID,0,VALID,23.7988,VALID,177,VALID,0.945313,
2010-08-25, 02:20:04,VALID,1000.97,VALID,0,VALID,91.0595,VALID,0,VALID,23.8183,VALID,177,VALID,0.945313,
2010-08-25, 02:21:04,VALID,1000.96,VALID,0,VALID,91.1206,VALID,0,VALID,23.8183,VALID,160,VALID,1.06133,
2010-08-25, 02:22:04,VALID,1000.94,VALID,0,VALID,91.1892,VALID,0,VALID,23.8378,VALID,157,VALID,0.959766,
2010-08-25, 02:23:04,VALID,1000.9,VALID,0,VALID,91.2274,VALID,0,VALID,23.8183,VALID,147,VALID,1.06445,
2010-08-25, 02:24:04,VALID,1000.9,VALID,0,VALID,91.296,VALID,0,VALID,23.8183,VALID,135,VALID,1.16875,
2010-08-25, 02:25:04,VALID,1000.91,VALID,0,VALID,91.4105,VALID,0,VALID,23.7775,VALID,134,VALID,1.2,
2010-08-25, 02:26:04,VALID,1000.88,VALID,0,VALID,91.5097,VALID,0,VALID,23.7597,VALID,129,VALID,1.15078,
2010-08-25, 02:27:05,VALID,1000.86,VALID,0,VALID,91.6241,VALID,0,VALID,23.7207,VALID,128,VALID,0.969922,
2010-08-25, 02:28:05,VALID,1000.86,VALID,0,VALID,91.7157,VALID,0,VALID,23.6817,VALID,117,VALID,0.999219,
2010-08-25, 02:29:05,VALID,1000.82,VALID,0,VALID,91.8072,VALID,0,VALID,23.6427,VALID,105,VALID,0.863672,
2010-08-25, 02:30:05,VALID,1000.83,VALID,0,VALID,91.8988,VALID,0,VALID,23.6036,VALID,82,VALID,0.960156,
2010-08-25, 02:31:05,VALID,1000.84,VALID,0,VALID,92.0132,VALID,0,VALID,23.5841,VALID,78,VALID,0.842969,
2010-08-25, 02:32:05,VALID,1000.8,VALID,0,VALID,92.1277,VALID,0,VALID,23.5646,VALID,55,VALID,0.783203,
2010-08-25, 02:33:05,VALID,1000.79,VALID,0,VALID,92.2345,VALID,0,VALID,23.5256,VALID,54,VALID,0.708594,
2010-08-25, 02:34:05,VALID,1000.79,VALID,0,VALID,92.3184,VALID,0,VALID,23.5256,VALID,54,VALID,0.676562,
2010-08-25, 02:35:05,VALID,1000.75,VALID,0,VALID,92.3718,VALID,0,VALID,23.5061,VALID,54,VALID,0.526953,
2010-08-25, 02:36:05,VALID,1000.75,VALID,0,VALID,92.3947,VALID,0,VALID,23.4866,VALID,54,VALID,0.537891,
2010-08-25, 02:37:05,VALID,1000.72,VALID,0,VALID,92.3947,VALID,0,VALID,23.4475,VALID,54,VALID,0.427734,
2010-08-25, 02:38:05,VALID,1000.7,VALID,0,VALID,92.41,VALID,0,VALID,23.428,VALID,54,VALID,0.236719,
2010-08-25, 02:39:05,VALID,1000.67,VALID,0,VALID,92.41,VALID,0,VALID,23.389,VALID,54,VALID,0.0105469,
2010-08-25, 02:40:05,VALID,1000.68,VALID,0,VALID,92.4023,VALID,0,VALID,23.3695,VALID,54,VALID,0,
2010-08-25, 02:41:05,VALID,1000.66,VALID,0,VALID,92.4328,VALID,0,VALID,23.35,VALID,54,VALID,0,
2010-08-25, 02:42:05,VALID,1000.66,VALID,0,VALID,92.471,VALID,0,VALID,23.3305,VALID,54,VALID,0,
2010-08-25, 02:43:05,VALID,1000.7,VALID,0,VALID,92.5244,VALID,0,VALID,23.311,VALID,54,VALID,0,
2010-08-25, 02:44:05,VALID,1000.68,VALID,0,VALID,92.5702,VALID,0,VALID,23.311,VALID,54,VALID,0,
2010-08-25, 02:45:05,VALID,1000.71,VALID,0,VALID,92.6617,VALID,0,VALID,23.311,VALID,54,VALID,0,
2010-08-25, 02:46:05,VALID,1000.74,VALID,0,VALID,92.7151,VALID,0,VALID,23.3305,VALID,54,VALID,0,
2010-08-25, 02:47:05,VALID,1000.73,VALID,0,VALID,92.7838,VALID,0,VALID,23.3092,VALID,54,VALID,0.119922,
2010-08-25, 02:48:05,VALID,1000.76,VALID,0,VALID,92.8754,VALID,0,VALID,23.3305,VALID,60,VALID,0.280469,
2010-08-25, 02:49:05,VALID,1000.76,VALID,0,VALID,92.8906,VALID,0,VALID,23.3305,VALID,64,VALID,0.343359,
2010-08-25, 02:50:05,VALID,1000.77,VALID,0,VALID,92.9211,VALID,0,VALID,23.3287,VALID,162,VALID,0.446484,
2010-08-25, 02:51:05,VALID,1000.77,VALID,0,VALID,92.9288,VALID,0,VALID,23.35,VALID,162,VALID,0.487109,
2010-08-25, 02:52:05,VALID,1000.77,VALID,0,VALID,92.9288,VALID,0,VALID,23.3287,VALID,162,VALID,0.395703,
2010-08-25, 02:53:05,VALID,1000.8,VALID,0,VALID,92.9135,VALID,0,VALID,23.389,VALID,162,VALID,0.4375,
2010-08-25, 02:54:05,VALID,1000.8,VALID,0,VALID,92.8677,VALID,0,VALID,23.389,VALID,162,VALID,0.319141,
2010-08-25, 02:55:05,VALID,1000.77,VALID,0,VALID,92.8296,VALID,0,VALID,23.389,VALID,162,VALID,0.432813,
2010-08-25, 02:56:05,VALID,1000.78,VALID,0,VALID,92.7762,VALID,0,VALID,23.389,VALID,162,VALID,0.203125,
2010-08-25, 02:57:05,VALID,1000.77,VALID,0,VALID,92.7304,VALID,0,VALID,23.428,VALID,190,VALID,0.638281,
2010-08-25, 02:58:05,VALID,1000.78,VALID,0,VALID,92.677,VALID,0,VALID,23.4458,VALID,190,VALID,0.563672,
2010-08-25, 02:59:05,VALID,1000.76,VALID,0,VALID,92.6388,VALID,0,VALID,23.4866,VALID,190,VALID,0.861328,
2010-08-25, 03:00:05,VALID,1000.74,VALID,0,VALID,92.6236,VALID,0,VALID,23.5451,VALID,189,VALID,0.722656,
2010-08-25, 03:01:05,VALID,1000.78,VALID,0,VALID,92.5778,VALID,0,VALID,23.5451,VALID,189,VALID,0.676172,
2010-08-25, 03:02:05,VALID,1000.79,VALID,0,VALID,92.4481,VALID,0,VALID,23.5841,VALID,195,VALID,0.635938,
2010-08-25, 03:03:05,VALID,1000.81,VALID,0,VALID,92.3184,VALID,0,VALID,23.6036,VALID,222,VALID,0.44375,
2010-08-25, 03:04:05,VALID,1000.85,VALID,0,VALID,92.1734,VALID,0,VALID,23.6232,VALID,222,VALID,0.30625,
2010-08-25, 03:05:05,VALID,1000.84,VALID,0,VALID,92.0132,VALID,0,VALID,23.6232,VALID,234,VALID,0.663281,
2010-08-25, 03:06:05,VALID,1000.88,VALID,0,VALID,91.8606,VALID,0,VALID,23.6427,VALID,234,VALID,0.774609,
2010-08-25, 03:07:05,VALID,1000.88,VALID,0,VALID,91.7385,VALID,0,VALID,23.6622,VALID,243,VALID,0.566797,
2010-08-25, 03:08:05,VALID,1000.9,VALID,0,VALID,91.647,VALID,0,VALID,23.6427,VALID,243,VALID,0.165234,
2010-08-25, 03:09:05,VALID,1000.91,VALID,0,VALID,91.6699,VALID,0,VALID,23.6427,VALID,243,VALID,0.419141,
2010-08-25, 03:10:05,VALID,1000.91,VALID,0,VALID,91.7233,VALID,0,VALID,23.6214,VALID,243,VALID,0.605078,
2010-08-25, 03:11:05,VALID,1000.92,VALID,0,VALID,91.7614,VALID,0,VALID,23.6445,VALID,280,VALID,0.551172,
2010-08-25, 03:12:05,VALID,1000.93,VALID,0,VALID,91.8377,VALID,0,VALID,23.6036,VALID,280,VALID,0.574219,
2010-08-25, 03:13:05,VALID,1000.92,VALID,0,VALID,91.8911,VALID,0,VALID,23.6036,VALID,280,VALID,0.500391,
2010-08-25, 03:14:05,VALID,1000.95,VALID,0,VALID,91.9598,VALID,0,VALID,23.5841,VALID,257,VALID,0.594922,
2010-08-25, 03:15:05,VALID,1000.95,VALID,0,VALID,91.9903,VALID,0,VALID,23.5841,VALID,257,VALID,0.436719,
2010-08-25, 03:16:05,VALID,1000.94,VALID,0,VALID,91.9827,VALID,0,VALID,23.5628,VALID,257,VALID,0.258594,
2010-08-25, 03:17:05,VALID,1000.93,VALID,0,VALID,91.9751,VALID,0,VALID,23.6036,VALID,257,VALID,0.339063,
2010-08-25, 03:18:05,VALID,1000.92,VALID,0,VALID,91.9751,VALID,0,VALID,23.6036,VALID,257,VALID,0.15,
2010-08-25, 03:19:05,VALID,1000.94,VALID,0,VALID,91.9674,VALID,0,VALID,23.5841,VALID,257,VALID,0,
2010-08-25, 03:20:05,VALID,1000.94,VALID,0,VALID,91.9674,VALID,0,VALID,23.5628,VALID,257,VALID,0,
2010-08-25, 03:21:05,VALID,1000.96,VALID,0,VALID,91.9674,VALID,0,VALID,23.5841,VALID,257,VALID,0.160156,
2010-08-25, 03:22:05,VALID,1000.96,VALID,0,VALID,91.998,VALID,0,VALID,23.5451,VALID,257,VALID,0,
2010-08-25, 03:23:05,VALID,1000.97,VALID,0,VALID,91.9598,VALID,0,VALID,23.5451,VALID,257,VALID,0,
2010-08-25, 03:24:05,VALID,1000.97,VALID,0,VALID,91.9217,VALID,0,VALID,23.5256,VALID,257,VALID,0,
2010-08-25, 03:25:05,VALID,1000.97,VALID,0,VALID,91.9293,VALID,0,VALID,23.5451,VALID,257,VALID,0,
2010-08-25, 03:26:05,VALID,1000.96,VALID,0,VALID,91.914,VALID,0,VALID,23.5256,VALID,257,VALID,0,
2010-08-25, 03:27:05,VALID,1000.94,VALID,0,VALID,91.8911,VALID,0,VALID,23.5451,VALID,190,VALID,0.570313,
2010-08-25, 03:28:05,VALID,1000.92,VALID,0,VALID,91.8911,VALID,0,VALID,23.5256,VALID,166,VALID,0.622266,
2010-08-25, 03:29:05,VALID,1000.94,VALID,0,VALID,91.8606,VALID,0,VALID,23.5238,VALID,165,VALID,0.625,
2010-08-25, 03:30:05,VALID,1000.91,VALID,0,VALID,91.8454,VALID,0,VALID,23.5646,VALID,134,VALID,0.884766,
2010-08-25, 03:31:05,VALID,1000.91,VALID,0,VALID,91.8911,VALID,0,VALID,23.5451,VALID,133,VALID,0.888281,
2010-08-25, 03:32:05,VALID,1000.9,VALID,0,VALID,91.9445,VALID,0,VALID,23.5451,VALID,127,VALID,1.13437,
2010-08-25, 03:33:05,VALID,1000.88,VALID,0,VALID,92.0361,VALID,0,VALID,23.5646,VALID,121,VALID,1.00547,
2010-08-25, 03:34:05,VALID,1000.88,VALID,0,VALID,92.1353,VALID,0,VALID,23.5646,VALID,120,VALID,1.0418,
2010-08-25, 03:35:05,VALID,1000.87,VALID,0,VALID,92.2192,VALID,0,VALID,23.5646,VALID,119,VALID,0.778906,
2010-08-25, 03:36:05,VALID,1000.85,VALID,0,VALID,92.3184,VALID,0,VALID,23.5646,VALID,113,VALID,0.853125,
2010-08-25, 03:37:05,VALID,1000.86,VALID,0,VALID,92.3794,VALID,0,VALID,23.5451,VALID,107,VALID,1.13203,
2010-08-25, 03:38:05,VALID,1000.88,VALID,0,VALID,92.4252,VALID,0,VALID,23.5451,VALID,97,VALID,1.11055,
2010-08-25, 03:39:05,VALID,1000.88,VALID,0,VALID,92.471,VALID,0,VALID,23.5451,VALID,101,VALID,1.02461,
2010-08-25, 03:40:05,VALID,1000.9,VALID,0,VALID,92.5015,VALID,0,VALID,23.5256,VALID,102,VALID,1.16562,
2010-08-25, 03:41:05,VALID,1000.87,VALID,0,VALID,92.5091,VALID,0,VALID,23.5256,VALID,103,VALID,1.11133,
2010-08-25, 03:42:05,VALID,1000.91,VALID,0,VALID,92.5473,VALID,0,VALID,23.5256,VALID,107,VALID,1.24023,
2010-08-25, 03:43:05,VALID,1000.92,VALID,0,VALID,92.5549,VALID,0,VALID,23.5256,VALID,121,VALID,0.944141,
2010-08-25, 03:44:05,VALID,1000.93,VALID,0,VALID,92.532,VALID,0,VALID,23.5256,VALID,113,VALID,0.723828,
2010-08-25, 03:45:05,VALID,1000.95,VALID,0,VALID,92.5015,VALID,0,VALID,23.5061,VALID,109,VALID,0.705859,
2010-08-25, 03:46:05,VALID,1000.94,VALID,0,VALID,92.5091,VALID,0,VALID,23.4848,VALID,106,VALID,0.578516,
2010-08-25, 03:47:05,VALID,1001.01,VALID,0,VALID,92.5015,VALID,0,VALID,23.5043,VALID,106,VALID,0.314453,